Theta_e
289 290 291 291 293 294 295 297 299 301 302 305 307 307 308 308 310 311 310 310 306 304 304 304 302 303 302 301 301 301 299 301 303 300 296 294 291 288 288 288 288 287 287
289 290 289 290 291 292 292 294 296 297 298 300 301 301 302 303 303 303 301 302 300 298 298 298 297 298 297 297 297 296 295 295 296 292 291 289 289 286 286 285 286 286 285
288 288 288 288 289 290 291 292 293 294 295 296 297 297 298 299 298 297 297 296 294 294 294 294 294 294 293 293 293 292 292 291 290 288 286 287 287 284 282 283 283 282 285
286 287 287 287 288 288 289 290 291 292 292 293 294 294 295 296 295 295 294 293 292 291 291 291 291 291 291 290 289 288 287 286 286 284 283 283 281 282 281 281 280 282 281
287 284 286 286 287 287 287 288 289 289 290 291 292 292 293 294 294 293 291 290 289 288 289 289 289 288 289 289 286 285 285 283 282 281 280 280 281 281 280 281 279 280 277
283 285 286 286 286 286 286 287 287 287 287 288 289 289 290 291 292 292 290 288 287 286 285 285 286 285 288 289 289 288 286 283 282 281 281 280 280 281 281 280 280 278 274
282 282 285 285 285 285 285 285 285 285 286 286 287 288 287 289 290 289 287 286 284 284 283 283 283 284 283 284 286 286 286 287 285 283 281 281 280 281 281 279 279 278 276
282 283 285 284 283 283 284 283 283 284 284 284 284 285 286 287 288 287 286 284 284 283 282 282 282 282 282 282 281 281 282 284 284 284 283 283 283 283 282 281 280 275 270
280 283 282 281 280 280 280 280 280 281 282 282 283 282 284 285 287 286 284 283 281 281 282 282 282 282 285 285 282 281 281 281 285 285 285 284 284 284 284 279 276 271 264
280 281 281 281 280 279 280 280 280 281 281 281 281 281 281 283 287 286 284 283 281 281 282 283 284 283 285 284 281 280 279 279 278 278 281 282 282 282 283 280 279 271 273
278 279 279 280 280 280 280 279 279 279 279 278 278 278 279 281 284 287 285 282 281 280 280 280 282 285 285 285 283 280 280 280 280 280 280 280 280 280 280 279 278 277 274
276 275 275 275 280 279 276 276 276 276 275 274 274 275 277 278 284 286 286 284 283 279 279 278 280 285 284 284 282 283 282 281 279 278 278 277 278 278 278 274 273 272 274
272 271 272 273 276 277 276 274 274 273 273 273 274 273 274 276 278 285 285 284 283 279 278 282 284 284 282 281 282 281 279 279 278 277 276 276 277 273 270 268 269 266 266
271 271 271 272 272 273 277 277 275 273 272 274 273 272 270 272 273 275 277 279 281 279 281 276 279 279 278 273 271 277 278 278 277 276 276 272 267 265 265 265 264 263 261
271 272 273 274 274 274 275 275 276 275 276 271 270 272 268 267 272 277 275 272 271 275 268 265 263 264 264 264 266 274 276 277 276 277 269 265 263 262 263 261 262 260 261
273 273 274 274 272 273 273 270 281 281 283 284 283 276 273 278 281 282 281 281 281 280 263 261 260 259 262 260 267 272 275 276 276 277 271 264 262 261 261 259 259 258 259
276 275 273 273 273 273 268 272 275 279 282 283 284 284 282 281 283 282 282 283 283 278 260 258 260 262 259 258 260 272 272 275 276 275 275 264 260 260 260 258 258 258 259
275 272 275 275 274 271 271 272 266 269 272 273 278 280 283 282 283 283 282 280 274 269 258 260 262 262 261 261 268 271 260 268 270 262 270 263 257 259 259 258 257 257 257
276 276 276 274 274 274 273 270 269 266 265 261 260 274 276 283 282 282 283 269 267 263 261 261 261 265 263 265 269 268 264 264 261 262 260 263 264 264 259 256 257 259 259
276 278 276 275 274 274 273 273 271 271 270 269 267 271 262 271 276 276 276 269 268 267 265 267 266 266 266 267 269 270 266 264 262 263 263 264 264 265 264 260 257 260 259
278 277 277 277 276 276 276 275 275 275 274 273 274 273 273 274 274 273 272 270 271 272 269 269 267 267 266 266 266 269 268 266 264 265 265 263 264 264 260 260 258 258 259
279 279 277 278 278 277 277 277 277 276 276 276 276 273 280 274 273 273 272 272 272 273 273 271 269 268 268 267 268 269 270 268 265 265 266 265 265 263 264 262 261 259 259
280 279 279 278 279 279 279 279 278 277 277 277 277 273 275 277 274 273 273 273 273 272 270 270 270 268 268 269 269 270 269 269 270 269 268 267 266 267 265 265 263 263 262
280 279 280 280 279 279 279 279 279 278 278 277 276 276 274 276 277 275 274 274 273 272 270 270 270 270 269 268 268 269 270 269 270 270 270 269 269 268 267 266 266 265 265
280 280 280 280 280 280 280 280 279 279 278 278 277 277 276 275 276 278 276 275 273 271 270 270 270 271 270 269 269 268 268 269 267 267 267 267 267 268 268 268 265 263 263
280 280 280 280 281 281 281 281 280 280 279 279 278 278 276 275 276 276 275 273 272 272 271 271 271 271 271 270 270 270 269 269 267 267 267 267 267 267 267 267 267 266 264
Wind_Speed
6 6 6 6 6 6 5 6 6 6 6 5 5 6 6 6 5 5 5 6 7 7 7 6 7 6 4 4 4 4 3 2 2 3 3 4 4 8 7 7 6 6 6
6 7 6 6 7 7 6 7 6 6 5 5 5 5 8 5 8 6 8 8 7 8 7 8 8 5 7 6 4 5 5 4 2 3 3 5 4 8 5 6 6 6 5
5 6 6 7 7 7 7 7 7 6 6 6 6 7 6 7 8 7 9 9 9 8 6 7 8 5 7 5 5 5 4 4 4 3 3 3 2 5 4 5 5 5 5
6 6 7 7 7 7 7 8 8 8 8 7 7 7 6 8 7 8 9 9 9 9 8 7 8 7 7 6 5 5 5 5 5 4 3 3 3 3 3 7 7 6 6
4 5 6 6 6 7 7 7 8 9 8 8 8 8 9 7 5 7 9 9 9 9 9 10 9 9 13 9 4 4 4 4 5 4 4 2 5 5 7 6 3 8 3
5 5 5 5 5 6 6 7 8 9 8 9 10 9 9 6 12 12 9 9 8 9 9 7 8 9 14 16 17 14 8 5 4 3 4 4 7 5 5 6 7 7 6
2 3 3 3 4 5 4 6 7 7 7 8 9 8 8 8 15 15 14 8 8 8 7 6 7 6 7 6 13 16 16 16 12 6 8 5 5 6 7 5 6 4 3
2 3 3 4 4 4 4 6 6 5 7 6 7 7 7 8 15 16 16 9 8 9 8 7 6 6 5 5 7 9 8 9 8 7 8 6 6 5 7 4 6 5 2
2 3 4 4 4 4 5 4 3 5 6 6 5 6 6 7 13 13 11 8 8 8 6 6 6 5 8 9 6 7 7 7 10 15 15 12 11 12 11 3 5 4 3
1 3 3 3 4 3 4 3 2 5 5 4 6 5 6 6 10 10 8 5 8 5 5 5 10 7 10 9 4 5 8 5 4 6 7 7 8 7 12 7 5 5 4
3 1 2 3 2 1 2 1 3 5 5 5 5 4 4 3 6 9 9 4 5 5 4 3 3 11 11 11 8 3 5 5 9 7 5 4 4 6 4 5 5 2 4
5 3 2 3 2 2 3 2 4 4 5 4 4 4 3 4 5 8 9 8 8 6 4 1 2 10 11 11 7 13 12 8 5 5 5 5 5 4 3 4 5 4 4
5 5 4 3 4 4 4 3 3 3 3 2 2 2 1 2 3 8 10 12 12 5 3 8 10 10 12 10 12 11 8 5 5 5 4 2 1 0 3 3 4 4 3
6 5 4 5 4 3 2 3 3 3 3 3 3 3 2 0 1 1 1 4 9 4 8 4 8 9 10 7 4 6 5 4 4 5 4 1 3 3 3 2 3 3 3
6 5 5 4 6 5 4 4 4 3 4 4 4 4 4 2 4 6 6 3 3 6 6 4 3 2 2 2 3 3 3 4 4 3 2 2 2 3 3 3 3 3 4
7 6 6 6 4 3 4 1 5 6 9 8 8 7 4 5 7 8 8 8 11 14 4 3 2 2 3 3 3 4 4 4 3 3 1 2 1 2 2 3 3 3 3
11 8 5 5 5 5 3 5 6 4 6 6 8 11 10 7 9 7 6 8 11 9 1 2 3 4 4 3 3 4 5 3 4 2 2 2 1 2 3 3 2 2 3
11 8 8 8 7 6 6 5 3 4 5 3 6 7 10 11 11 11 9 6 3 1 3 4 4 5 5 5 5 5 3 3 2 2 2 3 2 2 2 2 2 1 1
11 9 9 7 7 8 7 6 6 5 5 4 1 5 6 14 12 13 15 5 5 5 4 4 4 5 5 5 5 4 4 4 3 3 3 3 3 3 2 2 2 2 2
11 13 11 8 7 8 7 8 7 8 7 7 6 8 3 4 8 10 8 5 6 5 4 5 5 4 5 6 5 4 3 3 3 3 3 3 3 3 3 3 3 3 1
9 9 13 8 8 8 8 10 9 9 9 9 10 8 16 10 9 8 8 8 8 8 7 7 5 6 6 6 5 5 5 4 4 4 4 3 4 3 3 3 3 3 3
10 10 10 12 9 10 11 10 10 10 10 9 8 7 22 10 8 9 9 9 10 9 7 7 7 7 8 9 8 8 7 7 6 5 5 4 4 4 4 3 3 3 2
10 11 10 10 11 12 10 10 10 11 11 10 9 7 10 11 10 10 10 9 9 8 7 7 7 7 7 8 8 9 9 9 9 8 7 6 5 5 4 3 3 3 3
10 11 12 11 11 12 12 12 11 13 11 10 9 9 10 11 11 12 11 9 8 8 7 8 9 11 9 9 8 7 7 5 6 8 8 7 6 6 5 4 4 5 3
9 9 10 10 10 10 9 10 9 9 9 9 9 9 9 9 10 11 9 9 9 8 9 9 9 11 13 15 13 13 12 12 9 8 6 7 7 8 6 4 4 3 3
9 10 9 9 10 10 10 10 11 11 11 11 10 10 10 10 10 9 9 9 9 9 10 9 11 15 15 13 14 15 15 15 12 13 8 7 8 7 6 6 8 4 5
Wind_Direction
330 335 339 342 338 335 336 335 335 332 336 348 20 53 58 59 36 66 61 73 85 65 45 72 75 58 66 58 56 62 57 24 191 89 74 24 50 16 360 355 347 355 344
337 343 353 359 360 360 358 355 353 6 8 14 36 57 78 62 68 65 80 71 78 80 76 76 52 65 63 53 53 57 65 45 53 78 36 3 44 11 348 345 347 353 329
359 2 8 9 12 13 11 9 19 29 31 30 47 56 62 75 79 77 85 84 83 73 72 85 92 76 75 71 67 73 53 56 58 87 70 4 352 14 345 337 326 334 324
5 18 18 13 17 22 20 21 27 33 40 37 40 54 55 68 82 91 88 86 88 80 75 68 70 77 85 89 87 80 80 79 67 69 66 31 9 339 342 353 340 350 337
25 24 24 13 24 35 33 30 35 39 40 37 48 45 49 55 64 82 84 84 90 86 70 69 68 72 72 65 81 65 81 82 79 69 64 54 31 12 7 339 320 328 323
24 31 25 20 20 30 35 38 47 43 43 45 47 50 56 60 62 75 89 92 86 86 85 71 66 63 74 77 76 77 72 75 82 99 75 67 44 22 11 358 349 359 340
71 32 45 39 42 39 36 56 52 54 55 49 54 61 65 70 80 81 79 79 86 92 92 84 75 64 71 88 88 74 70 74 78 89 85 56 52 28 12 360 352 341 308
70 46 35 60 53 35 40 62 56 54 59 62 50 37 70 75 87 86 83 80 78 74 67 69 85 94 106 106 88 78 79 79 72 76 83 67 59 24 23 349 328 309 347
80 45 39 65 79 70 65 61 62 62 62 60 49 47 60 76 88 94 92 88 80 68 70 68 68 80 109 119 100 103 86 69 74 82 80 71 53 37 28 356 9 25 331
100 72 53 77 96 106 106 101 77 77 77 75 71 47 33 76 104 110 102 105 97 89 66 78 96 102 99 114 121 125 106 92 97 74 75 64 53 34 31 28 20 36 7
150 119 88 87 105 140 120 81 98 89 87 65 72 42 50 67 115 134 140 120 128 124 99 69 74 99 100 103 117 117 109 95 85 84 78 60 45 43 13 21 17 43 27
148 141 129 127 127 108 91 48 70 85 86 65 58 42 14 15 94 134 134 127 126 109 118 88 90 107 104 94 88 97 104 101 97 89 73 53 38 28 10 22 25 48 57
157 177 182 166 141 150 132 121 96 86 91 100 99 97 29 354 14 114 128 128 123 109 143 120 115 107 86 75 96 106 100 99 103 102 91 78 74 26 349 21 10 55 33
181 191 187 171 163 161 155 161 145 158 150 162 167 174 191 89 34 349 35 125 130 119 119 104 114 100 92 88 63 84 97 106 119 118 110 51 359 12 16 2 54 1 58
189 183 198 197 185 174 186 178 178 202 174 177 198 174 160 213 227 197 179 167 153 142 97 53 40 62 67 48 56 84 106 118 118 118 89 77 26 24 10 351 25 36 72
193 201 194 186 192 187 171 210 224 201 203 217 207 182 213 223 200 194 197 183 171 153 68 141 192 173 143 151 135 140 137 140 137 132 78 76 52 58 47 1 38 73 74
204 190 179 187 188 186 184 176 180 219 212 221 220 207 198 192 199 197 210 206 198 177 123 207 180 177 167 168 184 191 172 171 157 149 142 72 105 39 58 33 10 31 21
204 193 189 190 188 178 184 197 153 182 195 221 258 218 205 196 198 200 199 177 201 150 189 187 192 182 171 169 179 185 178 201 150 160 135 104 102 127 75 52 32 89 47
199 203 197 194 195 193 184 180 186 183 198 207 252 248 212 210 208 213 210 180 198 216 210 212 196 180 179 178 183 185 170 178 178 167 166 160 167 148 136 140 136 80 125
207 209 198 193 188 190 190 196 196 205 206 208 208 209 174 165 205 208 216 193 203 223 204 211 196 184 179 182 182 185 170 166 176 187 171 163 169 166 154 154 153 132 116
204 201 197 196 203 200 201 205 205 205 211 213 223 197 188 193 205 209 208 212 220 223 212 208 190 190 183 179 177 186 187 183 188 189 172 171 161 164 170 150 139 145 151
198 198 193 205 199 198 205 203 206 210 215 217 217 190 201 206 208 211 211 212 212 218 208 194 193 194 189 187 186 192 189 191 188 188 181 174 174 169 163 157 159 162 157
197 199 199 201 207 209 207 205 205 207 211 215 212 186 195 209 212 215 217 216 208 206 193 190 194 195 191 191 191 191 190 197 195 180 178 178 180 178 176 168 172 170 176
200 203 208 208 204 206 209 211 213 213 214 214 209 206 203 212 217 216 217 212 205 204 194 197 200 197 191 194 194 196 201 182 178 187 175 179 185 181 172 176 182 193 174
199 205 212 216 216 214 214 215 216 218 217 219 217 217 215 212 217 221 208 203 201 199 200 196 199 201 196 192 194 194 195 192 185 178 175 177 184 184 190 189 165 171 167
202 208 211 209 211 212 212 212 213 209 211 212 214 213 210 211 216 217 208 202 202 204 204 203 206 201 196 197 198 191 189 189 186 184 177 182 186 189 192 191 191 180 177